Terminal Aerodrome Forecast
Issued by NWS

Home | Current Version | Previous Version | Text Only | Print | Product List | Glossary On
Versions: 1 2 3 4 5 6 7 8 9 10 11 12 13 14 15 16 17 18
000
FTAK31 PAJN 301400 AAA
TAFAPG
TAF AMD
PAPG 301401Z 3014/0112 VRB05KT 6SM BR VCSH SCT003 BKN025
      TEMPO 3014/3016 1/2SM FG OVC002
     FM301600 10005KT 6SM -SHRA SCT006 BKN025 OVC050
     FM302100 12006KT P6SM -SHRA BKN040 OVC060
     FM010200 20004KT P6SM -SHRA SCT020 BKN040 OVC060
     FM010800 20005KT P6SM BCFG VCSH SCT005 BKN040 BKN050
     FM011000 19005KT 3SM BR SCT005 BKN060
      AMD NOT SKED=

USA.gov is the U.S. government's official web portal to all federal, state and local government web resources and services.